| time (UTC) | temp F | wind direction | speed knots | gust knots | rain 1hr in | rain 24hr in | rain mn in | humidity % | barometer mb |
| 20260504194556 | 67 | 314 | 5.2 | 13.9 | 0.00 | 0.00 | 0.00 | 36 | 1004.2 |
| 20260504194043 | 67 | 292 | 2.6 | 11.3 | 0.00 | 0.00 | 0.00 | 37 | 1004.3 |
| 20260504193543 | 67 | 330 | 4.3 | 12.2 | 0.00 | 0.00 | 0.00 | 36 | 1004.2 |
| 20260504193059 | 67 | 296 | 3.5 | 13.0 | 0.00 | 0.00 | 0.00 | 37 | 1004.2 |
| 20260504192543 | 68 | 336 | 5.2 | 13.0 | 0.00 | 0.00 | 0.00 | 35 | 1004.2 |
| 20260504192042 | 68 | 6 | 6.1 | 13.0 | 0.00 | 0.00 | 0.00 | 35 | 1004.3 |
| 20260504191558 | 67 | 302 | 0.9 | 10.4 | 0.00 | 0.00 | 0.00 | 38 | 1004.1 |
| 20260504191042 | 66 | 273 | 2.6 | 10.4 | 0.00 | 0.00 | 0.00 | 37 | 1004.2 |
| 20260504190542 | 67 | 296 | 3.5 | 11.3 | 0.00 | 0.00 | 0.00 | 36 | 1004.1 |
| 20260504190107 | 68 | 285 | 4.3 | 11.3 | 0.00 | 0.00 | 0.00 | 35 | 1004.2 |
| 20260504185544 | 68 | 236 | 3.5 | 15.6 | 0.00 | 0.00 | 0.00 | 37 | 1004.3 |
| 20260504185045 | 68 | 242 | 2.6 | 15.6 | 0.00 | 0.00 | 0.00 | 36 | 1004.4 |
| 20260504184612 | 67 | 310 | 2.6 | 14.8 | 0.00 | 0.00 | 0.00 | 40 | 1004.5 |
| 20260504184047 | 67 | 279 | 3.5 | 11.3 | 0.00 | 0.00 | 0.00 | 41 | 1004.5 |
| 20260504183546 | 65 | 295 | 3.5 | 11.3 | 0.00 | 0.00 | 0.00 | 39 | 1004.4 |
| 20260504183056 | 66 | 316 | 4.3 | 16.5 | 0.00 | 0.00 | 0.00 | 38 | 1004.5 |
| 20260504182545 | 66 | 297 | 4.3 | 16.5 | 0.00 | 0.00 | 0.00 | 39 | 1004.5 |
| 20260504182046 | 66 | 281 | 7.0 | 18.2 | 0.00 | 0.00 | 0.00 | 39 | 1004.6 |
| 20260504181554 | 65 | 307 | 6.1 | 18.2 | 0.00 | 0.00 | 0.00 | 40 | 1004.7 |
| 20260504181045 | 65 | 314 | 3.5 | 11.3 | 0.00 | 0.00 | 0.00 | 41 | 1004.8 |
| 20260504180545 | 64 | 266 | 3.5 | 11.3 | 0.00 | 0.00 | 0.00 | 42 | 1004.8 |
| 20260504180059 | 64 | 350 | 2.6 | 10.4 | 0.00 | 0.00 | 0.00 | 44 | 1005.0 |
| 20260504175545 | 62 | 238 | 4.3 | 13.9 | 0.00 | 0.00 | 0.00 | 45 | 1005.1 |
| 20260504175042 | 60 | 277 | 5.2 | 13.9 | 0.00 | 0.00 | 0.00 | 45 | 1005.2 |
| 20260504174600 | 60 | 307 | 3.5 | 10.4 | 0.00 | 0.00 | 0.00 | 45 | 1005.1 |
| 20260504174045 | 60 | 307 | 5.2 | 16.5 | 0.00 | 0.00 | 0.00 | 46 | 1005.1 |
| 20260504173545 | 60 | 311 | 6.1 | 16.5 | 0.00 | 0.00 | 0.00 | 44 | 1005.2 |
| 20260504173103 | 60 | 274 | 7.0 | 16.5 | 0.00 | 0.00 | 0.00 | 45 | 1005.1 |
| 20260504172542 | 60 | 309 | 4.3 | 18.2 | 0.00 | 0.00 | 0.00 | 45 | 1005.1 |
| 20260504172045 | 61 | 281 | 7.8 | 18.2 | 0.00 | 0.00 | 0.00 | 44 | 1005.1 |
| 20260504171558 | 61 | 4 | 5.2 | 15.6 | 0.00 | 0.00 | 0.00 | 44 | 1005.0 |
| 20260504171046 | 61 | 279 | 7.0 | 16.5 | 0.00 | 0.00 | 0.00 | 44 | 1004.8 |
| 20260504170546 | 61 | 304 | 7.8 | 16.5 | 0.00 | 0.00 | 0.00 | 44 | 1005.0 |
| 20260504151048 | 61 | 180 | 3.5 | 12.2 | 0.00 | 0.00 | 0.00 | 42 | 1005.3 |
| 20260504150545 | 61 | 290 | 4.3 | 8.7 | 0.00 | 0.00 | 0.00 | 45 | 1005.2 |
| 20260504141045 | 60 | 276 | 3.5 | 8.7 | 0.00 | 0.00 | 0.00 | 43 | 1005.5 |
| 20260504140545 | 60 | 219 | 2.6 | 8.7 | 0.00 | 0.00 | 0.00 | 46 | 1005.5 |
| 20260504130542 | 55 | 0 | 0.0 | 2.6 | 0.00 | 0.00 | 0.00 | 57 | 1006.4 |
| 20260504110545 | 39 | 0 | 0.0 | 0.0 | 0.00 | 0.00 | 0.00 | 84 | 1007.4 |
| 20260504100545 | 39 | 0 | 0.0 | 0.9 | 0.00 | 0.00 | 0.00 | 80 | 1007.3 |
| 20260504081553 | 39 | 0 | 0.0 | 1.7 | 0.00 | 0.00 | 0.00 | 72 | 1007.3 |
| 20260504081043 | 39 | 134 | 0.9 | 1.7 | 0.00 | 0.00 | 0.00 | 71 | 1007.2 |
| 20260504080544 | 39 | 139 | 0.9 | 1.7 | 0.00 | 0.00 | 0.00 | 71 | 1007.3 |
| 20260504050541 | 33 | 143 | 0.9 | 1.7 | 0.00 | 0.00 | 0.00 | 79 | 1007.2 |
| 20260504045542 | 33 | 131 | 0.9 | 0.9 | 0.00 | 0.00 | 0.00 | 79 | 1007.3 |
| 20260504045043 | 33 | 116 | 0.0 | 0.9 | 0.00 | 0.00 | 0.00 | 78 | 1007.2 |
| 20260504044553 | 33 | 131 | 0.9 | 0.9 | 0.00 | 0.00 | 0.00 | 77 | 1007.2 |
| 20260504044044 | 33 | 129 | 0.0 | 1.7 | 0.00 | 0.00 | 0.00 | 77 | 1007.3 |
| 20260504043544 | 33 | 0 | 0.9 | 2.6 | 0.00 | 0.00 | 0.00 | 78 | 1007.3 |
| 20260504043052 | 34 | 0 | 0.0 | 2.6 | 0.00 | 0.00 | 0.00 | 77 | 1007.3 |
| 20260504042542 | 34 | 123 | 0.9 | 1.7 | 0.00 | 0.00 | 0.00 | 77 | 1007.3 |
| 20260504042045 | 34 | 150 | 0.0 | 0.9 | 0.00 | 0.00 | 0.00 | 76 | 1007.3 |
| 20260504041551 | 34 | 0 | 0.0 | 0.9 | 0.00 | 0.00 | 0.00 | 75 | 1007.3 |
| 20260504041040 | 34 | 0 | 0.0 | 1.7 | 0.00 | 0.00 | 0.00 | 75 | 1007.2 |
| 20260504040541 | 34 | 124 | 0.9 | 2.6 | 0.00 | 0.00 | 0.00 | 77 | 1007.2 |
| 20260504040104 | 34 | 129 | 0.9 | 2.6 | 0.00 | 0.00 | 0.00 | 77 | 1007.1 |
| 20260504035544 | 34 | 136 | 1.7 | 2.6 | 0.00 | 0.00 | 0.00 | 77 | 1007.1 |
| 20260504035042 | 34 | 124 | 1.7 | 2.6 | 0.00 | 0.00 | 0.00 | 77 | 1007.0 |
| 20260504034558 | 35 | 126 | 0.9 | 1.7 | 0.00 | 0.00 | 0.00 | 76 | 1007.0 |
| 20260504034043 | 35 | 131 | 0.0 | 0.9 | 0.00 | 0.00 | 0.00 | 76 | 1007.1 |
| 20260504033541 | 35 | 146 | 0.0 | 0.0 | 0.00 | 0.00 | 0.00 | 76 | 1007.1 |
| 20260504033126 | 35 | 0 | 0.0 | 0.9 | 0.00 | 0.00 | 0.00 | 74 | 1007.1 |
| 20260504032544 | 35 | 0 | 0.0 | 0.9 | 0.00 | 0.00 | 0.00 | 73 | 1007.1 |
| 20260504032043 | 36 | 0 | 0.0 | 0.0 | 0.00 | 0.00 | 0.00 | 72 | 1007.1 |
| 20260504031549 | 36 | 0 | 0.0 | 0.9 | 0.00 | 0.00 | 0.00 | 71 | 1007.0 |
| 20260504031041 | 36 | 0 | 0.0 | 0.9 | 0.00 | 0.00 | 0.00 | 70 | 1007.0 |
| 20260504030543 | 37 | 146 | 0.0 | 0.0 | 0.00 | 0.00 | 0.00 | 69 | 1006.9 |
| 20260504030054 | 37 | 146 | 0.0 | 0.0 | 0.00 | 0.00 | 0.00 | 68 | 1006.9 |
| 20260504025544 | 37 | 0 | 0.0 | 0.9 | 0.00 | 0.04 | 0.00 | 68 | 1006.9 |
| 20260504025041 | 37 | 0 | 0.0 | 0.9 | 0.00 | 0.04 | 0.00 | 68 | 1007.0 |
| 20260504024550 | 38 | 0 | 0.0 | 0.9 | 0.00 | 0.04 | 0.00 | 68 | 1007.1 |
| 20260504024044 | 38 | 0 | 0.0 | 0.0 | 0.00 | 0.04 | 0.00 | 66 | 1007.1 |
| 20260504023542 | 39 | 0 | 0.0 | 0.0 | 0.00 | 0.04 | 0.00 | 65 | 1007.1 |
| 20260504023100 | 40 | 0 | 0.0 | 0.0 | 0.00 | 0.04 | 0.00 | 63 | 1007.2 |
| 20260504022543 | 40 | 0 | 0.0 | 0.9 | 0.00 | 0.04 | 0.00 | 61 | 1007.2 |
| 20260504022043 | 41 | 0 | 0.0 | 2.6 | 0.00 | 0.04 | 0.00 | 59 | 1007.2 |
| 20260504021554 | 41 | 0 | 0.0 | 2.6 | 0.00 | 0.04 | 0.00 | 59 | 1007.2 |
| 20260504021044 | 41 | 314 | 0.0 | 2.6 | 0.00 | 0.04 | 0.00 | 59 | 1007.1 |
| 20260504020545 | 41 | 306 | 0.0 | 0.9 | 0.00 | 0.04 | 0.00 | 60 | 1007.2 |
| 20260504020058 | 41 | 0 | 0.0 | 0.9 | 0.00 | 0.04 | 0.00 | 59 | 1007.1 |
| 20260504015545 | 41 | 0 | 0.0 | 2.6 | 0.00 | 0.10 | 0.00 | 59 | 1007.1 |
| 20260504015044 | 41 | 305 | 0.0 | 2.6 | 0.00 | 0.10 | 0.00 | 58 | 1007.1 |
| 20260504014551 | 41 | 0 | 0.0 | 0.9 | 0.00 | 0.10 | 0.00 | 59 | 1007.0 |
| 20260504014045 | 42 | 0 | 0.0 | 0.9 | 0.00 | 0.10 | 0.00 | 59 | 1007.0 |
| 20260504013544 | 41 | 300 | 0.0 | 0.9 | 0.00 | 0.10 | 0.00 | 59 | 1007.0 |
| 20260504013104 | 42 | 0 | 0.0 | 0.9 | 0.00 | 0.10 | 0.00 | 59 | 1007.0 |
| 20260504012541 | 42 | 0 | 0.0 | 1.7 | 0.00 | 0.10 | 0.00 | 59 | 1007.0 |
| 20260504012042 | 42 | 0 | 0.0 | 1.7 | 0.00 | 0.10 | 0.00 | 58 | 1007.0 |
| 20260504011553 | 42 | 300 | 0.0 | 1.7 | 0.00 | 0.10 | 0.00 | 58 | 1006.9 |
| 20260504011043 | 42 | 304 | 0.0 | 1.7 | 0.00 | 0.10 | 0.00 | 58 | 1006.9 |
| 20260504010545 | 42 | 0 | 0.0 | 0.9 | 0.00 | 0.10 | 0.00 | 58 | 1006.9 |
| 20260504010059 | 42 | 288 | 0.0 | 0.9 | 0.00 | 0.10 | 0.00 | 58 | 1006.8 |
| 20260504005545 | 42 | 0 | 0.0 | 1.7 | 0.00 | 0.10 | 0.00 | 58 | 1006.7 |
| 20260504005042 | 42 | 290 | 0.0 | 1.7 | 0.00 | 0.10 | 0.00 | 57 | 1006.8 |
| 20260504004605 | 42 | 0 | 0.0 | 1.7 | 0.00 | 0.10 | 0.00 | 57 | 1006.7 |
| 20260504004043 | 43 | 300 | 0.0 | 1.7 | 0.00 | 0.10 | 0.00 | 57 | 1006.4 |
| 20260504003544 | 43 | 288 | 0.0 | 2.6 | 0.00 | 0.10 | 0.00 | 56 | 1006.4 |
| 20260504003051 | 43 | 301 | 0.9 | 3.5 | 0.00 | 0.10 | 0.00 | 56 | 1006.4 |
| 20260504002542 | 43 | 300 | 0.9 | 3.5 | 0.00 | 0.10 | 0.00 | 56 | 1006.3 |
| 20260504002045 | 43 | 314 | 0.9 | 3.5 | 0.00 | 0.10 | 0.00 | 56 | 1006.2 |
| 20260504001604 | 43 | 334 | 0.0 | 2.6 | 0.00 | 0.10 | 0.00 | 56 | 1006.2 |
| 20260504001042 | 44 | 284 | 0.9 | 2.6 | 0.00 | 0.10 | 0.00 | 55 | 1006.2 |
| 20260504000541 | 44 | 0 | 0.0 | 1.7 | 0.00 | 0.10 | 0.00 | 54 | 1006.1 |
| 20260504000057 | 45 | 302 | 0.9 | 3.5 | 0.00 | 0.10 | 0.00 | 52 | 1006.1 |
| 20260503235542 | 45 | 277 | 0.9 | 5.2 | 0.00 | 0.10 | 0.00 | 51 | 1006.1 |
| 20260503235044 | 45 | 305 | 1.7 | 5.2 | 0.00 | 0.10 | 0.00 | 50 | 1006.0 |
| 20260503234549 | 46 | 318 | 2.6 | 6.1 | 0.00 | 0.10 | 0.00 | 50 | 1005.9 |
| 20260503234042 | 46 | 303 | 2.6 | 7.0 | 0.00 | 0.10 | 0.00 | 49 | 1005.9 |
| 20260503233547 | 46 | 311 | 2.6 | 7.0 | 0.00 | 0.10 | 0.00 | 49 | 1005.9 |
| 20260503233050 | 46 | 293 | 3.5 | 7.8 | 0.00 | 0.10 | 0.00 | 48 | 1005.8 |
| 20260503232545 | 46 | 320 | 4.3 | 8.7 | 0.00 | 0.10 | 0.00 | 48 | 1005.8 |
| 20260503232044 | 46 | 289 | 2.6 | 8.7 | 0.00 | 0.10 | 0.00 | 48 | 1005.8 |
| 20260503231556 | 47 | 314 | 4.3 | 9.6 | 0.00 | 0.10 | 0.00 | 47 | 1005.7 |
| 20260503231042 | 47 | 17 | 3.5 | 11.3 | 0.00 | 0.10 | 0.00 | 47 | 1005.8 |
| 20260503230542 | 47 | 304 | 5.2 | 11.3 | 0.00 | 0.10 | 0.00 | 46 | 1005.8 |
| 20260503230057 | 48 | 311 | 7.0 | 11.3 | 0.00 | 0.10 | 0.00 | 45 | 1005.8 |
| 20260503225541 | 48 | 293 | 5.2 | 12.2 | 0.00 | 0.11 | 0.00 | 45 | 1005.7 |
| 20260503225045 | 48 | 347 | 4.3 | 12.2 | 0.00 | 0.11 | 0.00 | 46 | 1005.7 |
| 20260503224548 | 48 | 335 | 7.0 | 12.2 | 0.00 | 0.11 | 0.00 | 44 | 1005.6 |
| 20260503224042 | 49 | 302 | 4.3 | 15.6 | 0.00 | 0.11 | 0.00 | 44 | 1005.5 |
| 20260503223544 | 49 | 343 | 7.0 | 15.6 | 0.00 | 0.11 | 0.00 | 44 | 1005.6 |
| 20260503223058 | 49 | 333 | 7.8 | 20.0 | 0.00 | 0.11 | 0.00 | 44 | 1005.5 |
| 20260503222541 | 49 | 317 | 6.1 | 20.0 | 0.00 | 0.11 | 0.00 | 43 | 1005.5 |
| 20260503222041 | 50 | 314 | 6.1 | 20.0 | 0.00 | 0.11 | 0.00 | 43 | 1005.4 |
| 20260503221553 | 49 | 311 | 3.5 | 13.0 | 0.00 | 0.11 | 0.00 | 45 | 1005.4 |
| 20260503221042 | 49 | 316 | 5.2 | 13.0 | 0.00 | 0.11 | 0.00 | 44 | 1005.3 |
| 20260503220542 | 49 | 283 | 4.3 | 9.6 | 0.00 | 0.11 | 0.00 | 45 | 1005.3 |
| 20260503220056 | 48 | 314 | 3.5 | 11.3 | 0.00 | 0.11 | 0.00 | 47 | 1005.3 |
| 20260503215543 | 48 | 307 | 6.1 | 13.0 | 0.00 | 0.11 | 0.00 | 46 | 1005.3 |
| 20260503215041 | 47 | 327 | 6.1 | 13.0 | 0.00 | 0.11 | 0.00 | 46 | 1005.2 |
| 20260503214551 | 48 | 337 | 6.1 | 12.2 | 0.00 | 0.11 | 0.00 | 46 | 1005.2 |
| 20260503214045 | 48 | 331 | 6.1 | 12.2 | 0.00 | 0.11 | 0.00 | 45 | 1005.2 |
| 20260503213544 | 48 | 22 | 4.3 | 11.3 | 0.00 | 0.11 | 0.00 | 46 | 1005.2 |
| 20260503213104 | 48 | 294 | 5.2 | 17.4 | 0.00 | 0.11 | 0.00 | 45 | 1005.3 |
| 20260503212542 | 48 | 334 | 6.1 | 17.4 | 0.00 | 0.11 | 0.00 | 45 | 1005.3 |
| 20260503212042 | 48 | 299 | 7.0 | 14.8 | 0.00 | 0.11 | 0.00 | 46 | 1005.2 |
| 20260503211556 | 48 | 312 | 6.1 | 14.8 | 0.00 | 0.11 | 0.00 | 46 | 1005.2 |
| 20260503211048 | 48 | 23 | 4.3 | 13.0 | 0.00 | 0.11 | 0.00 | 46 | 1005.2 |
| 20260503210545 | 48 | 317 | 7.0 | 13.0 | 0.00 | 0.11 | 0.00 | 45 | 1005.1 |
| 20260503210113 | 49 | 275 | 7.0 | 13.0 | 0.00 | 0.11 | 0.00 | 45 | 1005.0 |
| 20260503205545 | 48 | 354 | 6.1 | 19.1 | 0.00 | 0.20 | 0.00 | 46 | 1005.1 |
| 20260503205043 | 47 | 281 | 7.8 | 19.1 | 0.00 | 0.20 | 0.00 | 46 | 1005.1 |
| 20260503204555 | 47 | 319 | 7.0 | 14.8 | 0.00 | 0.20 | 0.00 | 46 | 1005.0 |
| 20260503204042 | 47 | 340 | 7.8 | 16.5 | 0.00 | 0.20 | 0.00 | 48 | 1005.1 |
| 20260503203543 | 47 | 335 | 7.0 | 16.5 | 0.00 | 0.20 | 0.00 | 47 | 1005.1 |
| 20260503203105 | 47 | 300 | 7.8 | 16.5 | 0.00 | 0.20 | 0.00 | 46 | 1005.1 |
| 20260503202542 | 47 | 290 | 6.1 | 16.5 | 0.00 | 0.20 | 0.00 | 48 | 1005.1 |
| 20260503202041 | 47 | 48 | 8.7 | 16.5 | 0.00 | 0.20 | 0.00 | 47 | 1005.0 |
| 20260503201548 | 47 | 347 | 7.0 | 16.5 | 0.00 | 0.20 | 0.00 | 47 | 1005.0 |
| 20260503201042 | 47 | 15 | 6.1 | 16.5 | 0.00 | 0.20 | 0.00 | 47 | 1004.9 |
| 20260503200542 | 48 | 299 | 8.7 | 15.6 | 0.00 | 0.20 | 0.00 | 45 | 1004.8 |
| 20260503200100 | 48 | 335 | 6.1 | 13.0 | 0.00 | 0.20 | 0.00 | 44 | 1004.7 |
| 20260503195541 | 48 | 304 | 7.0 | 17.4 | 0.00 | 0.20 | 0.00 | 44 | 1004.7 |
| 20260503195042 | 48 | 309 | 7.8 | 17.4 | 0.00 | 0.20 | 0.00 | 43 | 1004.8 |